Weather in Andriivka

Ukraine / Dnipropetrovsk Region     47°35′51″N   33°12′49″E
temp.,
°C
wind,
m/s
gust,
m/s
humid.,
%
clouds,
%
prec.,
mm/h
press.,
hPa
HPBL,
m
19 april, mon
mon1900:00+10e1164100 0.0 101613
03:00+9w1166100 0.0 101612
06:00+9nnw236999 0.0 101558
09:00+12nne336099 0.0 1016581
12:00+13ene2257100 0.1 10151491
15:00+13sse2258100 0.4 10151067
18:00+14ese115690 0.1 10141135
21:00+11ese2270100 0.1 101313
20 april, tue
tue2000:00+9ene2276100 0.0 101127
03:00+9ne3878100 0.0 1009208
06:00+9ene4984100 0.6 1007391
09:00+8nne61094100 6.9 1005499
12:00+8n81291100 10.8 1002671
15:00+9nnw81390100 13.0 1001877
18:00+9nw91490100 2.9 1003762
21:00+9wnw61284100 3.5 1006492
21 april, wed
wed2100:00+8w51083100 0.0 1009353
03:00+6w510895 0.0 1011281
06:00+5wsw48923 0.0 1012144
09:00+10w47665 0.0 1014579
12:00+14w474963 0.0 10151875
15:00+14wsw565860 0.6 10151351
18:00+13wsw576426 1.4 10161117
21:00+9sw478324 2.5 1018127
22 april, thu
thu2200:00+7ssw37935 0.1 1018139
03:00+6ssw34942 0.1 101873
06:00+6s33935 0.0 101953
09:00+12ssw45735 0.0 1020394
12:00+17ssw55526 0.4 10201469
15:00+17sw5645100 1.3 10192274
18:00+16sw57538 0.0 1019746
21:00+11ssw49770 0.0 1021168
23 april, fri
fri2300:00+8s48885 0.0 1021173
03:00+8s410915 0.0 1020214
06:00+7s410925 0.0 1020210
09:00+13s69660 0.0 1020527
12:00+17ssw78505 0.0 10191455
15:00+18ssw7846100 0.0 10172326
18:00+16ssw68555 0.1 10171303
21:00+11s49743 0.1 1017194